Location: Casone le Fosse
(44.6547°N, 12.1103°E)
Time: 11:29:09
(UTC+00:00)

CZ-2D R/B - Pass Details

Date: 29 October 2020
Orbit: 521 x 537 km, 97.4° (Epoch: 27 November)

Event Time Altitude Azimuth Distance (km) Brightness Sun altitude
Rises 17:20:00 0° 160° (SSE) 2,648 6.7 -14.0°
Reaches altitude 10° 17:22:06 10° 158° (SSE) 1,762 5.7 -14.4°
Maximum altitude 17:25:52 69° 76° (ENE) 566 3.1 -15.0°
Drops below altitude 10° 17:29:40 10° 353° (N) 1,770 5.9 -15.7°
Sets 17:31:47 0° 351° (N) 2,663 6.9 -16.1°
